Milwaukee Timmerman, WI

8:19 PM CDT on June 23, 2017 (GMT -0500)
Timmerman

Weather History for KMWC - September, 2012

Change the Weather History Date:

Saturday, September 29, 2012

  Actual Average Record
Temperature  
Mean Temperature 58 °F -  
Max Temperature 75 °F 68 °F 95 °F (2010)
Min Temperature 42 °F 48 °F 28 °F (1951)
Degree Days  
Heating Degree Days 6    
Growing Degree Days 8 (Base 50)    
Moisture  
Dew Point 42 °F    
Average Humidity 73    
Maximum Humidity 93    
Minimum Humidity 22    
Precipitation  
Precipitation 0.00 in - - ()
Sea Level Pressure  
Sea Level Pressure 30.07 in    
Wind  
Wind Speed 2 mph (NNW)    
Max Wind Speed 12 mph    
Max Gust Speed -    
Visibility 10 miles    
Events      
Averages and records for this station are not official NWS values.
T = Trace of Precipitation, MM = Missing Value Source: NWS Daily Summary

Daily Weather History Graph

Daily Weather History Graph

Search for Another Location

Airport or City:

Trip Planner

Search our weather history database for the weather conditions in past years. The results will help you decide how hot, cold, wet, or windy it might be!

Date:

Astronomy

Sep. 29, 2012 Rise Set
Actual Time 6:47 AM CDT 6:35 PM CDT
Civil Twilight 6:19 AM CDT 7:04 PM CDT
Nautical Twilight 5:46 AM CDT 7:37 PM CDT
Astronomical Twilight 5:12 AM CDT 8:10 PM CDT
Moon 6:07 PM CDT (9/29) 6:19 AM CDT (9/29)
Length of Visible Light 12h 44m
Length of Day
11h 48m
Full, 100% of the Moon is Illuminated
Sep 29
Full
Sep 29
Full
Oct 8
Last Quarter
Oct 15
New
Oct 21
First Quarter

Hourly Weather History & Observations

Time (CDT) Temp. Windchill Dew Point Humidity Pressure Visibility Wind Dir Wind Speed Gust Speed Precip Events Conditions
12:15 AM 46.4 °F - 41.0 °F 81% 30.12 in 10.0 mi Calm Calm - N/A   Clear
12:35 AM 44.6 °F - 41.0 °F 87% 30.11 in 10.0 mi Calm Calm - N/A   Clear
12:55 AM 44.6 °F - 41.0 °F 87% 30.11 in 10.0 mi Calm Calm - N/A   Clear
1:15 AM 46.4 °F - 41.0 °F 81% 30.11 in 10.0 mi Calm Calm - N/A   Clear
1:35 AM 44.6 °F - 41.0 °F 87% 30.11 in 10.0 mi Calm Calm - N/A   Clear
1:55 AM 44.6 °F - 41.0 °F 87% 30.11 in 10.0 mi Calm Calm - N/A   Clear
2:15 AM 44.6 °F - 41.0 °F 87% 30.11 in 10.0 mi Calm Calm - N/A   Clear
2:35 AM 42.8 °F - 41.0 °F 93% 30.11 in 10.0 mi Calm Calm - N/A   Clear
2:55 AM 44.6 °F - 41.0 °F 87% 30.10 in 10.0 mi Calm Calm - N/A   Clear
3:15 AM 44.6 °F - 41.0 °F 87% 30.10 in 10.0 mi Calm Calm - N/A   Clear
3:35 AM 44.6 °F - 41.0 °F 87% 30.10 in 10.0 mi Calm Calm - N/A   Clear
3:55 AM 44.6 °F - 41.0 °F 87% 30.10 in 10.0 mi Calm Calm - N/A   Clear
4:15 AM 44.6 °F - 41.0 °F 87% 30.10 in 10.0 mi Calm Calm - N/A   Clear
4:35 AM 44.6 °F - 41.0 °F 87% 30.10 in 10.0 mi Calm Calm - N/A   Clear
4:55 AM 46.4 °F - 39.2 °F 76% 30.10 in 10.0 mi Calm Calm - N/A   Clear
5:15 AM 46.4 °F - 37.4 °F 71% 30.09 in 10.0 mi Calm Calm - N/A   Clear
5:35 AM 46.4 °F - 37.4 °F 71% 30.09 in 10.0 mi Calm Calm - N/A   Clear
5:55 AM 44.6 °F 43.1 °F 37.4 °F 76% 30.09 in 10.0 mi West 3.5 mph - N/A   Clear
6:15 AM 46.4 °F - 37.4 °F 71% 30.09 in 10.0 mi Calm Calm - N/A   Clear
6:35 AM 46.4 °F 45.2 °F 37.4 °F 71% 30.09 in 10.0 mi West 3.5 mph - N/A   Clear
6:55 AM 44.6 °F - 37.4 °F 76% 30.09 in 10.0 mi Calm Calm - N/A   Clear
7:45 AM 48.2 °F - 41.0 °F 76% 30.09 in 10.0 mi West 4.6 mph - N/A   Clear
8:57 AM 55.4 °F - 42.8 °F 63% 30.09 in 10.0 mi West 4.6 mph - N/A   Clear
9:45 AM 62.6 °F - 42.8 °F 48% 30.09 in 10.0 mi WNW 5.8 mph - N/A   Clear
10:50 AM 68.0 °F - 39.2 °F 35% 30.07 in 10.0 mi NNW 5.8 mph - N/A   Clear
11:45 AM 71.6 °F - 35.6 °F 27% 30.05 in 10.0 mi North 6.9 mph - N/A   Clear
12:45 PM 73.4 °F - 33.8 °F 23% 30.03 in 10.0 mi NW 6.9 mph - N/A   Clear
1:45 PM 75.2 °F - 33.8 °F 22% 30.01 in 10.0 mi North 8.1 mph - N/A   Clear
2:45 PM 66.2 °F - 42.8 °F 43% 30.01 in 10.0 mi NE 11.5 mph - N/A   Clear
3:45 PM 66.2 °F - 44.6 °F 46% 30.01 in 10.0 mi NE 11.5 mph - N/A   Clear
4:45 PM 66.2 °F - 39.2 °F 37% 30.01 in 10.0 mi NE 9.2 mph - N/A   Clear
5:45 PM 62.6 °F - 46.4 °F 55% 30.02 in 10.0 mi NE 9.2 mph - N/A   Clear
6:45 PM 59.0 °F - 50.0 °F 72% 30.03 in 10.0 mi NNE 6.9 mph - N/A   Clear
7:45 PM 57.2 °F - 48.2 °F 72% 30.02 in 10.0 mi NNE 4.6 mph - N/A   Clear
9:15 PM 51.8 °F - 46.4 °F 82% 30.03 in 10.0 mi Calm Calm - N/A   Clear
9:35 PM 50.0 °F - 46.4 °F 87% 30.02 in 10.0 mi Calm Calm - N/A   Clear
9:55 PM 48.2 °F - 44.6 °F 87% 30.02 in 10.0 mi Calm Calm - N/A   Clear
10:15 PM 46.4 °F - 44.6 °F 93% 30.03 in 10.0 mi Calm Calm - N/A   Clear
10:35 PM 50.0 °F - 46.4 °F 87% 30.03 in 10.0 mi Calm Calm - N/A   Clear
10:55 PM 50.0 °F - 46.4 °F 87% 30.03 in 10.0 mi Calm Calm - N/A   Clear
11:15 PM 48.2 °F - 44.6 °F 87% 30.03 in 10.0 mi Calm Calm - N/A   Clear
11:35 PM 46.4 °F - 44.6 °F 93% 30.03 in 10.0 mi Calm Calm - N/A   Clear
11:55 PM 46.4 °F - 44.6 °F 93% 30.03 in 10.0 mi Calm Calm - N/A   Clear